Regional Weather Roundup
Issued by NWS Sterling, VA

Home | Current Version | Previous Version | Graphics & Text | Print | Product List | Glossary On
Versions: 1 2 3 4 5 6 7 8 9 10 11 12 13 14 15 16 17 18 19 20 21 22 23 24 25 26 27 28 29 30 31 32 33 34 35 36 37 38 39 40 41 42 43 44 45 46 47 48 49 50
000
ASUS41 KLWX 221711
RWRLWX

REGIONAL WEATHER ROUNDUP
NATIONAL WEATHER SERVICE BALTIMORE MD/WASHINGTON DC
100 PM EDT MON MAY 22 2017

Note: "FAIR" indicates few or no clouds below 12,000 feet
with no significant weather and/or obstructions to visibility.
 TC=TEMPERATURE CELSIUS

 * =Non NWS site. Station does not report precipitation (e.g. rain,
    snow, etc.), thunder, or fog.

DCZ001-MDZ009-015-VAZ040>042-051-053>054-221800-
WASHINGTON METRO

CITY           SKY/WX    TMP DP  RH WIND       PRES   REMARKS
WASHINGTON NAT CLOUDY    65  62  90 SE6       30.04F
DULLES         CLOUDY    64  61  90 S5        30.03F
ANDREWS AFB    CLOUDY    63  61  94 CALM      30.02F
FT BELVOIR     CLOUDY    64  61  88 SE5       30.02F
COLLEGE PARK*  CLOUDY    63  59  89 CALM      30.03F
LEESBURG*      CLOUDY    66  63  88 S5        30.04F
MANASSAS*        N/A     66  62  87 S5        30.03F
GAITHERSBURG*  CLOUDY    64  60  87 S6        30.04F

$$

MDZ006>007-011-014-221800-
BALTIMORE METRO

CITY           SKY/WX    TMP DP  RH WIND       PRES   REMARKS
BWI AIRPORT    CLOUDY    63  61  93 SW3       30.03F
MARTIN STATE   CLOUDY    63  63 100 CALM      30.06R
ANNAPOLIS      CLOUDY    64  63  96 CALM      30.04S

$$

MDZ012-015-019>023-221800-
MARYLAND EASTERN SHORE

CITY           SKY/WX    TMP DP  RH WIND       PRES   REMARKS
OCEAN CITY     CLOUDY    65  62  90 VRB5      30.04F
SALISBURY      CLOUDY    71  69  93 S8        30.02F FOG
BAY BRIDGE AP* LGT RAIN  63  61  94 S3        30.04S
CAMBRIDGE*     PTSUNNY   63  63 100 CALM      30.03F
EASTON*        RAIN      63  61  94 CALM      30.07F

$$

MDZ017>025-221800-
SOUTHERN MARYLAND

CITY           SKY/WX    TMP DP  RH WIND       PRES   REMARKS
PATUXENT RIVER LGT RAIN  64  64 100 CALM      30.03F
ST INIGOES     LGT RAIN  66  65  96 CALM      30.02F
LEONARDTOWN*   CLOUDY    63  61  94 CALM      30.04F

$$

MDZ003>005-221800-
NORTH CENTRAL MARYLAND

CITY           SKY/WX    TMP DP  RH WIND       PRES   REMARKS
FREDERICK*     CLOUDY    64  64 100 CALM      30.06F
HAGERSTOWN APT CLOUDY    65  59  81 S7        30.02F
WESTMINSTER*   CLOUDY    64  63  94 S6        30.03F

$$

MDZ501>502-221800-
WESTERN MARYLAND

CITY           SKY/WX    TMP DP  RH WIND       PRES   REMARKS
OAKLAND*         N/A     59  54  82 W13       30.07F
CUMBERLAND*    CLOUDY    73  63  68 NE5       30.02F

$$

VAZ025>031-221800-
SHENANDOAH VALLEY

CITY           SKY/WX    TMP DP  RH WIND       PRES   REMARKS
WINCHESTER*    PTSUNNY   70  61  73 CALM      30.00F
FRONT ROYAL*   PTSUNNY   72  64  78 NE6       29.99F
LURAY*         CLOUDY    75  64  69 S5        29.99F
NEW MARKET*    PTSUNNY   76  63  63 SW5       29.99F
STAUNTON*      PTSUNNY   73  63  68 SW5       30.03F
WAYNESBORO*    PTSUNNY   71  64  78 SW8       30.03F

$$

WVZ021-048>050-054>055-221800-
EASTERN WEST VIRGINIA PANHANDLE

CITY           SKY/WX    TMP DP  RH WIND       PRES   REMARKS
MARTINSBURG    CLOUDY    69  62  78 CALM      30.00F
PETERSBURG*    CLOUDY    79  60  53 W12G18    30.00S

$$

VAZ036>039-050-221800-
CENTRAL FOOTHILLS

CITY           SKY/WX    TMP DP  RH WIND       PRES   REMARKS
CHARLOTTESVILL PTSUNNY   72  64  76 S7        30.01F
CULPEPER*      CLOUDY    67  63  87 CALM      30.04F
ORANGE*        PTSUNNY   70  63  78 S5        30.02F
GORDONSVILLE*  MOSUNNY   72  63  73 S8        30.01F
WARRENTON*     CLOUDY    67  60  78 CALM      30.02F

$$

VAZ055>057-221800-
NORTH AND CENTRAL PIEDMONT

CITY           SKY/WX    TMP DP  RH WIND       PRES   REMARKS
FREDERICKSBRG* CLOUDY    64  64 100 CALM      30.02F
STAFFORD*      CLOUDY    64  64 100 CALM      30.07F

$$

NCZ024-NYZ072-PAZ021-071-VAZ022-071-221800-
OTHER REGIONAL OBSERVATIONS

CITY           SKY/WX    TMP DP  RH WIND       PRES   REMARKS
NEW YORK CITY  CLOUDY    57  56  96 VRB3      30.11S
PHILADELPHIA   RAIN      61  58  90 CALM      30.05S FOG
PITTSBURGH     PTSUNNY   64  48  56 W14       30.03F
ROANOKE        CLOUDY    71  64  78 W6        30.07F
RICHMOND       LGT RAIN  65  64  97 N6        30.01F FOG
RALEIGH        PTSUNNY   73  66  78 NW6       30.03F

$$

ANZ530>537-221800-
MARINE OBSERVATIONS

STATION/POSITION TIME  TEMP    WIND        PRES
                       AIR SEA DIR/SP/G
                 (UTC) (F)     (DEG/KT/KT) (MB)
THOMAS PT LIGHT  1700   61 66  250/  2/  2   N/A
BALT KEY BRIDGE  1648   61     130/  2/  3 1017.1F
COVE POINT       1648   62      CALM  /  1 1017.5F
LEWISETTA        1648   65 69   40/  2/  3 1016.4F
SOLOMONS ISLAND  1648   63 67     CALM       N/A
PINEY POINT      1642          190/  2/  2   N/A

$$




USA.gov is the U.S. government's official web portal to all federal, state and local government web resources and services.